Regional Weather Roundup
Issued by NWS

Home | Current Version | Previous Version | Graphics & Text | Print | Product List | Glossary On
Versions: 1 2 3 4 5 6 7 8 9 10 11 12 13 14 15 16 17 18 19 20 21 22 23 24 25 26 27 28 29 30 31 32 33 34 35 36 37 38 39 40 41 42 43 44 45 46 47 48 49 50
000
ASUS43 KBIS 041310
RWRND

NORTH DAKOTA REGIONAL WEATHER ROUNDUP
NATIONAL WEATHER SERVICE BISMARCK ND
800 AM CDT SAT JUL 04 2015

NOTE: "FAIR" INDICATES FEW OR NO CLOUDS BELOW 12,000 FEET WITH NO
SIGNIFICANT WEATHER AND/OR OBSTRUCTIONS TO VISIBILITY.


NDZ001>003-009>011-017-041400-
NORTHWEST NORTH DAKOTA

CITY           SKY/WX    TMP DP  RH WIND       PRES   REMARKS
WILLISTON      SUNNY     70  61  73 S6        29.76F HAZE
MINOT          SUNNY     70  63  78 S8        29.78F HAZE
MINOT AFB      SUNNY     68  68 100 S5        29.77F FOG
$$

NDZ018>021-031>035-040>046-041400-
SOUTHWEST NORTH DAKOTA

CITY           SKY/WX    TMP DP  RH WIND       PRES   REMARKS
BISMARCK       SUNNY     67  65  93 SE6       29.84F FOG
DICKINSON      SUNNY     67  61  81 S10       29.81F HAZE
GARRISON         N/A     68  65  90 SE5       29.81F
HETTINGER ARPT MOSUNNY   66  60  81 SE6       29.85F HAZE
$$

NDZ004>008-012>016-024-026-027-054-041400-
NORTHEAST NORTH DAKOTA

CITY           SKY/WX    TMP DP  RH WIND       PRES   REMARKS
GRAND FORKS    CLOUDY    65  62  90 S7        29.87S FOG
GRND FRKS AFB  SUNNY     67  64  89 S6        29.87S FOG
DEVILS LAKE    MOSUNNY   70  63  78 S3        29.84S
$$

NDZ022-023-025-028>030-036>039-047>053-041400-
SOUTHEAST NORTH DAKOTA

CITY           SKY/WX    TMP DP  RH WIND       PRES   REMARKS
FARGO          MOSUNNY   68  62  81 S7        29.89F HAZE
JAMESTOWN      PTSUNNY   68  64  87 S6        29.87F FOG
$$




USA.gov is the U.S. government's official web portal to all federal, state and local government web resources and services.